Tracking 18840 objects as of 18-November-2017
HD Live streaming from Space Station
objects crossing your sky now

CZ-4B DEB

Track CZ-4B DEB now!
10-day predictions


NORAD ID: 35404
Int'l Code: 2002-024J
Perigee: 796.4 km
Apogee: 872.6 km
Inclination: 98.9 °
Period: 101.5 minutes
Semi major axis: 7205 km
RCS: 0.0161 m2 (small)
Launch date: May 15, 2002
Source: People's Republic of China (PRC)
Launch site: Taiyaun Space Center, China (TSC)

Note: This is SATELLITE DEBRIS
aabbcc
Your satellite tracking list
Your tracking list is empty




NASA's NSSDC Master Catalog

Two Line Element Set (TLE):
1 35404U 02024J   17322.19671595 -.00000004  00000-0  18960-4 0  9995
2 35404  98.8818 293.9338 0052902 162.1528 266.0342 14.19409257797435
Source of the keplerian elements: AFSPC